星链-34711 (STARLINK-34711)

导读

STARLINK-34711是美国SpaceX星链星座计划中的一颗卫星,于2025年7月26日发射升空。作为星链网络的组成部分,它主要为全球偏远地区、海洋与航空场景提供低时延宽带互联网服务,帮助填补全球网络覆盖空白,依托近地轨道部署,能降低信号传输延迟,提升服务稳定性,进一步扩充星链星座的服务容量与覆盖范围。

基本信息
目录编号:
64912
目录名称:
STARLINK-34711
国际标识:
2025-157J
轨道中心:
EARTH
卫星名称:
星链-34711
卫星全名:
星链-34711 (STARLINK-34711)
卫星状态:
在轨 (已飞行406 天)
发射日期:
2025-07-26 UTC
国别 :
美国 (US)
星等 :
--
轨道信息
数据来源 国际轨道数据
星历时间: 2026-09-05T13:45:11+0800
7小时前
查看轨道信息
半长轴: 6840.872km
偏心率: 0.0001042
轨道倾角: 53.156°
近地点辐角 94.193°
升交点赤经 228.846°
平近点角 265.919°
近地点: 462.022km
远地点: 463.448km
周期: 93.848分钟
每日圈数: 15.343895
详细信息
固有亮度:
5
最大亮度:
2.5
卫星平台:
Starlink V1.0
覆盖范围:
全球
运营商:
太空探索技术公司
运营商所在国:
美国
制造商(研发单位):
太空探索技术公司
制造商所在国:
美国
使用方式:
暂无
卫星简介
Starlink 计划是 SpaceX 推出的全球卫星互联网项目,通过发射低轨道卫星,为全球尤其是偏远地区提供高速、低延迟的互联网服务。自 2019 年起,Starlink 已部署数千颗卫星,旨在缩小全球数字鸿沟,推动互联网普及。该项目还为军事、航空等行业提供通信支持,带来广泛经济效益。
2D轨道图
3D轨道图
轨道高度分析图
轨道倾角分析图
轨道综合分析图
查看轨道综合分析图